Wind from 251

Air temperature 8.3° C
Dewpoint -2.9° C

Last reported at 2014-Apr-24 18:48 UTC.
Time now 2014-Apr-24 19:36 UTC

Location: N 60°16' E 023°41'.
View on Google Maps.

See reports from other nearby stations

Tides Stations Pressure Air Temp Water Temp Dewpoint Dewpoint depression Visibility Wind Speed Wind Dir Waves Ship positions

  
sailing weather and tide predictions

DW3039 Karjalohja FI weather

date/time (UTC)wind fromknots sea level pressurealtimeterstation pressurevisibilityair tempwater tempwave heightnotes
2014-Apr-24 18:48 251 8.3
2014-Apr-24 18:38 251 8.3
2014-Apr-24 18:28 251 8.9
2014-Apr-24 18:18 251 8.9
2014-Apr-24 18:08 254 9.4
2014-Apr-24 17:58 201 9.4
2014-Apr-24 17:48 256 10.0
2014-Apr-24 17:38 208 10.0
2014-Apr-24 17:28 227 4 gusting 7 10.6
2014-Apr-24 17:18 241 3 gusting 6 10.6
2014-Apr-24 17:08 234 4 gusting 6 10.6
2014-Apr-24 16:58 219 2 gusting 7 11.1
2014-Apr-24 16:48 221 3 gusting 8 11.1
2014-Apr-24 16:38 228 0 gusting 9 11.1
2014-Apr-24 16:28 235 6 gusting 12 11.7
2014-Apr-24 16:18 242 4 gusting 10 11.7
2014-Apr-24 16:08 249 5 gusting 10 11.7
2014-Apr-24 15:58 249 4 gusting 7 12.2
2014-Apr-24 15:48 242 3 gusting 9 12.2
2014-Apr-24 15:38 230 2 gusting 7 12.2
2014-Apr-24 15:28 242 1 gusting 6 12.2
2014-Apr-24 15:18 252 3 gusting 6 12.2
2014-Apr-24 15:08 281 0 gusting 8 12.2
2014-Apr-24 14:58 250 1 gusting 6 12.2
2014-Apr-24 14:48 252 0 gusting 8 12.2
2014-Apr-24 14:38 263 2 gusting 8 12.8
2014-Apr-24 14:28 213 3 gusting 6 12.8
2014-Apr-24 14:18 228 3 gusting 8 12.8
2014-Apr-24 14:08 213 1 gusting 7 12.8
2014-Apr-24 13:58 233 4 gusting 10 12.8
2014-Apr-24 13:48 252 2 gusting 7 12.2
2014-Apr-24 13:38 354 5 gusting 10 12.2
2014-Apr-24 13:28 227 2 gusting 7 11.7
2014-Apr-24 13:17 245 4 gusting 8 11.7
2014-Apr-24 13:07 222 0 gusting 8 11.7
2014-Apr-24 12:57 224 2 gusting 7 11.1
2014-Apr-24 12:46 186 3 gusting 6 11.1
2014-Apr-24 12:36 241 4 gusting 7 11.1
2014-Apr-24 12:26 261 1 gusting 9 11.1
2014-Apr-24 12:16 198 2 gusting 7 11.1
2014-Apr-24 12:06 211 3 gusting 7 10.6
2014-Apr-24 11:56 250 4 gusting 7 10.6
2014-Apr-24 11:46 172 0 gusting 7 10.6
2014-Apr-24 11:36 189 4 gusting 9 10.0
2014-Apr-24 11:26 146 10.0
2014-Apr-24 11:16 253 2 gusting 6 10.0
2014-Apr-24 11:06 260 1 gusting 6 10.0
2014-Apr-24 10:56 227 10.0
2014-Apr-24 10:46 039 3 gusting 6 10.6
2014-Apr-24 10:36 149 11.1
2014-Apr-24 10:26 197 0 gusting 7 11.1
2014-Apr-24 10:16 131 3 gusting 7 11.1
2014-Apr-24 10:06 138 2 gusting 7 10.6
2014-Apr-24 09:56 138 1 gusting 6 10.6
2014-Apr-24 09:46 142 0 gusting 6 10.0
2014-Apr-24 09:36 124 0 gusting 4 9.4
2014-Apr-24 09:26 215 9.4
2014-Apr-24 09:16 042 0 gusting 4 8.9
2014-Apr-24 09:06 137 0 gusting 4 8.3
2014-Apr-24 08:56 164 0 gusting 4 8.3
2014-Apr-24 08:46 125 8.3
2014-Apr-24 08:36 126 8.3
2014-Apr-24 08:25 115 0 gusting 3 7.8
2014-Apr-24 08:15 085 7.8
2014-Apr-24 08:05 108 7.8
2014-Apr-24 07:55 115 7.2
2014-Apr-24 07:45 133 0 gusting 4 7.2
2014-Apr-24 07:35 125 1 gusting 4 6.7
2014-Apr-24 07:25 115 6.7
2014-Apr-24 07:15 125 6.1
2014-Apr-24 07:05 161 0 gusting 1 5.6
2014-Apr-24 06:55 119 5.0
2014-Apr-24 06:45 134 0 gusting 2 5.0
2014-Apr-24 06:35 344 4.4
2014-Apr-24 06:25 344 3.9
2014-Apr-24 06:15 344 3.3
2014-Apr-24 06:05 344 3.3
2014-Apr-24 05:55 344 2.8
2014-Apr-24 05:45 344 2.8
2014-Apr-24 05:35 344 2.8
2014-Apr-24 05:25 344 2.8
2014-Apr-24 05:15 344 2.8
2014-Apr-24 05:05 344 2.8
2014-Apr-24 04:55 344 2.2
2014-Apr-24 04:45 344 2.2
2014-Apr-24 04:35 344 1.7
2014-Apr-24 04:25 344 1.1
2014-Apr-24 04:15 344 0.6
2014-Apr-24 04:05 344 0.6
2014-Apr-24 03:55 344 -0.0
2014-Apr-24 03:45 344 -0.0
2014-Apr-24 03:35 344 -0.6
2014-Apr-24 03:25 344 -0.6
2014-Apr-24 03:15 344 -0.6
2014-Apr-24 03:05 344 -0.6
2014-Apr-24 02:55 344 -0.0
2014-Apr-24 02:45 344 -0.0
2014-Apr-24 02:35 344 -0.0
2014-Apr-24 02:25 344 -0.0
2014-Apr-24 02:15 344 -0.0
2014-Apr-24 02:05 344 -0.0
2014-Apr-24 01:55 344 -0.0
2014-Apr-24 01:45 344 -0.0
2014-Apr-24 01:35 344 -0.0
2014-Apr-24 01:25 344 -0.0
2014-Apr-24 01:15 344 -0.0
2014-Apr-24 01:05 344 0.6
2014-Apr-24 00:55 344 0.6
2014-Apr-24 00:45 344 0.6
2014-Apr-24 00:35 344 0.6
2014-Apr-24 00:25 344 0.6
2014-Apr-24 00:15 344 0.6
2014-Apr-24 00:05 344 0.6
2014-Apr-23 23:55 344 1.1
2014-Apr-23 23:45 344 1.1
2014-Apr-23 23:35 344 1.1
2014-Apr-23 23:24 344 1.1
2014-Apr-23 23:14 344 1.7
2014-Apr-23 23:04 344 1.7
2014-Apr-23 22:54 344 1.7
2014-Apr-23 22:44 344 1.7
2014-Apr-23 22:34 344 1.7
2014-Apr-23 22:24 344 2.2
2014-Apr-23 22:14 344 2.2
2014-Apr-23 22:04 344 2.8
2014-Apr-23 21:54 344 2.8
2014-Apr-23 21:44 344 2.8
2014-Apr-23 21:34 344 3.3
2014-Apr-23 21:24 344 3.3
2014-Apr-23 21:14 344 3.3
2014-Apr-23 21:04 344 3.9
2014-Apr-23 20:54 344 3.9
2014-Apr-23 20:43 344 4.4
2014-Apr-23 20:33 344 4.4
2014-Apr-23 20:23 344 4.4
2014-Apr-23 20:13 344 5.0
2014-Apr-23 20:03 344 5.0
2014-Apr-23 19:53 344 5.6
2014-Apr-23 19:43 344 5.6
2014-Apr-23 19:33 344 6.1
2014-Apr-23 19:23 344 6.1
2014-Apr-23 19:13 344 6.7
2014-Apr-23 19:03 019 6.7
2014-Apr-23 18:53 354 6.7
2014-Apr-23 18:43 313 7.2
2014-Apr-23 18:33 015 0 gusting 5 7.2
2014-Apr-23 18:23 359 1 gusting 5 7.2
2014-Apr-23 18:13 030 1 gusting 5 7.8
2014-Apr-23 18:03 333 7.8
2014-Apr-23 17:53 027 1 gusting 6 8.3
2014-Apr-23 17:43 347 1 gusting 6 8.3
2014-Apr-23 17:33 327 3 gusting 9 8.3
2014-Apr-23 17:23 326 1 gusting 5 8.9
2014-Apr-23 17:13 322 1 gusting 6 8.9
2014-Apr-23 17:03 334 4 gusting 9 8.9
2014-Apr-23 16:53 338 5 gusting 8 8.9
2014-Apr-23 16:43 338 4 gusting 8 8.9
2014-Apr-23 16:33 009 4 gusting 8 9.4
2014-Apr-23 16:23 018 2 gusting 6 9.4
2014-Apr-23 16:13 309 2 gusting 8 9.4
2014-Apr-23 16:03 011 5 gusting 10 9.4
2014-Apr-23 15:53 322 3 gusting 11 9.4
2014-Apr-23 15:43 019 4 gusting 13 9.4
2014-Apr-23 15:33 328 3 gusting 8 9.4
2014-Apr-23 15:23 052 5 gusting 11 9.4
2014-Apr-23 15:13 341 4 gusting 10 9.4
2014-Apr-23 15:03 020 5 gusting 10 9.4
2014-Apr-23 14:53 009 6 gusting 13 9.4
2014-Apr-23 14:43 335 6 gusting 13 9.4
2014-Apr-23 14:33 027 5 gusting 12 9.4
2014-Apr-23 14:23 339 5 gusting 12 9.4
2014-Apr-23 14:12 003 7 gusting 13 9.4
2014-Apr-23 14:02 332 6 gusting 14 9.4
2014-Apr-23 13:52 343 6 gusting 11 9.4
2014-Apr-23 13:42 017 3 gusting 11 9.4
2014-Apr-23 13:32 350 6 gusting 14 9.4
2014-Apr-23 13:22 019 6 gusting 12 9.4
2014-Apr-23 13:12 348 5 gusting 12 9.4
2014-Apr-23 13:02 025 6 gusting 11 9.4
2014-Apr-23 12:52 335 5 gusting 11 9.4
2014-Apr-23 12:42 336 6 gusting 10 9.4
2014-Apr-23 12:32 341 7 gusting 10 9.4
2014-Apr-23 12:22 329 6 gusting 11 8.9
2014-Apr-23 12:12 318 6 gusting 11 9.4
2014-Apr-23 12:02 333 6 gusting 11 8.9
2014-Apr-23 11:52 046 7 gusting 13 8.9
2014-Apr-23 11:42 320 6 gusting 13 8.9
2014-Apr-23 11:32 046 6 gusting 9 8.9
2014-Apr-23 11:22 343 4 gusting 16 8.9
2014-Apr-23 11:11 347 5 gusting 13 8.3
2014-Apr-23 11:01 043 6 gusting 13 8.3
2014-Apr-23 10:51 338 8 gusting 14 8.3
2014-Apr-23 10:41 337 5 gusting 13 8.3
2014-Apr-23 10:31 320 5 gusting 14 8.3
2014-Apr-23 10:21 052 2 gusting 11 8.3
2014-Apr-23 10:11 003 3 gusting 12 8.3
2014-Apr-23 10:01 025 6 gusting 13 8.3
2014-Apr-23 09:51 333 7.8
2014-Apr-23 09:41 018 6 gusting 16 7.8
2014-Apr-23 09:31 043 6 gusting 13 7.8
2014-Apr-23 09:21 339 5 gusting 11 7.8
2014-Apr-23 09:11 339 6 gusting 12 7.8
2014-Apr-23 09:01 339 8 gusting 14 7.8
2014-Apr-23 08:51 033 3 gusting 11 7.8
2014-Apr-23 08:41 333 6 gusting 11 7.8
2014-Apr-23 08:31 040 3 gusting 11 7.2
2014-Apr-23 08:21 046 5 gusting 13 7.2
2014-Apr-23 08:11 345 5 gusting 11 7.2
2014-Apr-23 08:01 356 4 gusting 11 7.2
2014-Apr-23 07:51 343 6 gusting 16 6.7
2014-Apr-23 07:41 042 6 gusting 13 6.7
2014-Apr-23 07:31 348 6 gusting 12 6.7
2014-Apr-23 07:21 030 6 gusting 13 6.7
2014-Apr-23 07:11 032 5 gusting 13 6.7
2014-Apr-23 07:01 355 6 gusting 10 6.7
2014-Apr-23 06:51 346 7 gusting 13 6.1
2014-Apr-23 06:41 344 6 gusting 13 6.1
2014-Apr-23 06:31 345 3 gusting 13 6.1
2014-Apr-23 06:21 013 6 gusting 14 5.6
2014-Apr-23 06:10 018 5 gusting 10 5.0
2014-Apr-23 06:00 050 5 gusting 9 5.0
2014-Apr-23 05:50 352 5 gusting 13 4.4
2014-Apr-23 05:40 345 6 gusting 11 4.4
2014-Apr-23 05:30 011 4 gusting 8 4.4
2014-Apr-23 05:20 348 6 gusting 10 3.9
2014-Apr-23 05:10 358 6 gusting 12 3.9
2014-Apr-23 05:00 010 6 gusting 12 3.9
2014-Apr-23 04:50 340 5 gusting 10 3.9
2014-Apr-23 04:40 019 5 gusting 11 3.9
2014-Apr-23 04:30 341 6 gusting 11 3.9
2014-Apr-23 04:20 353 5 gusting 13 3.3
2014-Apr-23 04:10 002 5 gusting 8 3.3
2014-Apr-23 04:00 341 6 gusting 9 3.3
2014-Apr-23 03:50 347 2 gusting 9 3.3
2014-Apr-23 03:40 328 2 gusting 9 2.8
2014-Apr-23 03:30 337 3 gusting 8 2.8
2014-Apr-23 03:20 342 2 gusting 7 2.8
2014-Apr-23 03:10 358 0 gusting 4 3.3
2014-Apr-23 03:00 343 0 gusting 6 3.3
2014-Apr-23 02:50 330 2 gusting 5 3.3
2014-Apr-23 02:40 344 2 gusting 6 3.3
2014-Apr-23 02:30 304 1 gusting 6 3.9
2014-Apr-23 02:20 302 0 gusting 4 3.9
2014-Apr-23 02:10 334 0 gusting 4 3.9
2014-Apr-23 02:00 002 3.9
2014-Apr-23 01:50 026 3.9
2014-Apr-23 01:40 342 4 gusting 6 4.4
2014-Apr-23 01:30 347 1 gusting 5 4.4
2014-Apr-23 01:20 325 1 gusting 6 4.4
2014-Apr-23 01:10 024 2 gusting 5 5.0
2014-Apr-23 01:00 013 0 gusting 6 5.0
2014-Apr-23 00:50 304 5.0
2014-Apr-23 00:40 030 1 gusting 6 5.6
2014-Apr-23 00:30 027 1 gusting 7 5.6
2014-Apr-23 00:20 009 0 gusting 3 5.6
2014-Apr-23 00:10 009 1 gusting 6 5.6
2014-Apr-23 00:00 338 2 gusting 6 6.1
2014-Apr-22 23:49 352 0 gusting 8 6.1
2014-Apr-22 23:39 014 2 gusting 6 6.1
2014-Apr-22 23:29 033 4 gusting 8 6.1
2014-Apr-22 23:19 015 4 gusting 7 6.7
2014-Apr-22 23:09 033 4 gusting 8 6.7
2014-Apr-22 22:59 001 4 gusting 10 6.7
2014-Apr-22 22:49 357 5 gusting 9 7.2
2014-Apr-22 22:39 033 4 gusting 10 7.2
2014-Apr-22 22:29 357 6 gusting 13 7.2
2014-Apr-22 22:19 338 6 gusting 10 7.8
2014-Apr-22 22:09 7.8
2014-Apr-22 21:59 342 2 gusting 11 8.3
2014-Apr-22 21:49 337 7 gusting 15 8.3
2014-Apr-22 21:39 012 4 gusting 13 8.3
2014-Apr-22 21:29 021 5 gusting 13 8.9
2014-Apr-22 21:19 359 6 gusting 12 8.9
2014-Apr-22 21:09 343 7 gusting 19 9.4
2014-Apr-22 20:59 005 5 gusting 13 9.4
2014-Apr-22 20:49 345 6 gusting 13 10.0
2014-Apr-22 20:39 345 4 gusting 12 10.0
2014-Apr-22 20:29 355 7 gusting 13 10.6
2014-Apr-22 20:19 350 6 gusting 17 11.1
2014-Apr-22 20:09 354 8 gusting 14 11.1
2014-Apr-22 19:59 332 5 gusting 9 11.1
2014-Apr-22 19:49 012 5 gusting 11 11.7
2014-Apr-22 19:38 342 2 gusting 7 11.7
2014-Apr-22 19:28 001 2 gusting 6 12.2
2014-Apr-22 19:18 005 3 gusting 6 12.2
2014-Apr-22 19:08 349 0 gusting 5 12.8